Track PROGRESS MS-16 now! 10-day predictions PROGRESS MS-16 is classified as:
1 47618U 21011A 21060.55770078 .00001249 00000-0 30810-4 0 9991 2 47618 51.6463 155.0683 0003083 62.8763 62.1321 15.49021001271915